weather.gov     
National Weather Service

Terminal Aerodrome Forecast
NWS Homepage
This page is being discontinued on March 12, 2014.
The same data is available at this site. Please update your bookmarks.
Thank you, and we apologize for the inconvenience.
Please send an email to SR-SRH.Webmaster@noaa.gov with any concerns.


Current Version
Previous Version:    01  02  03  04  05  06  07  08  09  10  11  12  13  14  
[Printable]
254
FTUS41 KCAR 300500 RRA
TAFHUL
TAF
KHUL 300548Z 3006/0106 09006KT P6SM -DZ OVC015
     FM300800 09006KT P6SM -DZ OVC007
     FM301400 12004KT P6SM -DZ OVC010
     FM301900 00000KT P6SM SCT015 OVC025
     FM302200 00000KT P6SM BKN020
     FM010400 00000KT P6SM BKN007=


U.S. Dept. of Commerce
NOAA National Weather Service
1325 East West Highway
Silver Spring, MD 20910
E-mail: w-nws.webmaster@noaa.gov
Page last modified: May 16, 2007
NATIONAL WEATHER SERVICE: for Safety, for Work, for Fun - FOR LIFE